#datetime,building,power
2022-12-20T00:00:00,prt,20.27
2022-12-20T00:01:00,prt,21.05
2022-12-20T00:02:00,prt,21.23
2022-12-20T00:03:00,prt,19.51
2022-12-20T00:04:00,prt,22.81
2022-12-20T00:05:00,prt,23.18
2022-12-20T00:06:00,prt,21.92
2022-12-20T00:07:00,prt,18.68
2022-12-20T00:08:00,prt,18.70
2022-12-20T00:09:00,prt,17.50
2022-12-20T00:10:00,prt,23.21
2022-12-20T00:11:00,prt,23.25
2022-12-20T00:12:00,prt,20.11
2022-12-20T00:13:00,prt,21.28
2022-12-20T00:14:00,prt,21.65
2022-12-20T00:15:00,prt,19.77
2022-12-20T00:16:00,prt,20.41
2022-12-20T00:17:00,prt,22.24
2022-12-20T00:18:00,prt,21.53
2022-12-20T00:19:00,prt,19.83
2022-12-20T00:20:00,prt,22.14
2022-12-20T00:21:00,prt,22.29
2022-12-20T00:22:00,prt,21.45
2022-12-20T00:23:00,prt,21.34
2022-12-20T00:24:00,prt,19.64
2022-12-20T00:25:00,prt,25.30
2022-12-20T00:26:00,prt,28.19
2022-12-20T00:27:00,prt,21.31
2022-12-20T00:28:00,prt,21.87
2022-12-20T00:29:00,prt,23.61
2022-12-20T00:30:00,prt,22.43
2022-12-20T00:31:00,prt,22.03
2022-12-20T00:32:00,prt,21.41
2022-12-20T00:33:00,prt,20.57
2022-12-20T00:34:00,prt,20.31
2022-12-20T00:35:00,prt,19.44
2022-12-20T00:36:00,prt,19.70
2022-12-20T00:37:00,prt,21.82
2022-12-20T00:38:00,prt,19.39
2022-12-20T00:39:00,prt,19.60
2022-12-20T00:40:00,prt,19.47
2022-12-20T00:41:00,prt,19.18
2022-12-20T00:42:00,prt,19.29
2022-12-20T00:43:00,prt,18.94
2022-12-20T00:44:00,prt,19.07
2022-12-20T00:45:00,prt,21.71
2022-12-20T00:46:00,prt,24.77
2022-12-20T00:47:00,prt,24.77
2022-12-20T00:48:00,prt,37.26
2022-12-20T00:49:00,prt,22.04
2022-12-20T00:50:00,prt,22.31
2022-12-20T00:51:00,prt,19.28
2022-12-20T00:52:00,prt,18.58
2022-12-20T00:53:00,prt,19.36
2022-12-20T00:54:00,prt,18.41
2022-12-20T00:55:00,prt,18.42
2022-12-20T00:56:00,prt,18.13
2022-12-20T00:57:00,prt,19.08
2022-12-20T00:58:00,prt,20.54
2022-12-20T00:59:00,prt,21.51
2022-12-20T01:00:00,prt,20.92
2022-12-20T01:01:00,prt,20.18
2022-12-20T01:02:00,prt,20.07
2022-12-20T01:03:00,prt,21.54
2022-12-20T01:04:00,prt,26.46
2022-12-20T01:05:00,prt,27.43
2022-12-20T01:06:00,prt,26.47
2022-12-20T01:07:00,prt,25.25
2022-12-20T01:08:00,prt,22.19
2022-12-20T01:09:00,prt,19.68
2022-12-20T01:10:00,prt,20.26
2022-12-20T01:11:00,prt,19.83
2022-12-20T01:12:00,prt,21.18
2022-12-20T01:13:00,prt,25.87
2022-12-20T01:14:00,prt,26.93
2022-12-20T01:15:00,prt,27.68
2022-12-20T01:16:00,prt,33.95
2022-12-20T01:17:00,prt,31.59
2022-12-20T01:18:00,prt,23.04
2022-12-20T01:19:00,prt,23.61
2022-12-20T01:20:00,prt,23.43
2022-12-20T01:21:00,prt,20.76
2022-12-20T01:22:00,prt,20.17
2022-12-20T01:23:00,prt,20.12
2022-12-20T01:24:00,prt,19.29
2022-12-20T01:25:00,prt,20.71
2022-12-20T01:26:00,prt,25.43
2022-12-20T01:27:00,prt,25.49
2022-12-20T01:28:00,prt,21.78
2022-12-20T01:29:00,prt,19.58
2022-12-20T01:30:00,prt,20.15
2022-12-20T01:31:00,prt,19.46
2022-12-20T01:32:00,prt,20.34
2022-12-20T01:33:00,prt,19.59
2022-12-20T01:34:00,prt,19.81
2022-12-20T01:35:00,prt,19.59
2022-12-20T01:36:00,prt,18.35
2022-12-20T01:37:00,prt,21.11
2022-12-20T01:38:00,prt,20.45
2022-12-20T01:39:00,prt,20.16
2022-12-20T01:40:00,prt,22.17
2022-12-20T01:41:00,prt,22.78
2022-12-20T01:42:00,prt,21.50
2022-12-20T01:43:00,prt,22.98
2022-12-20T01:44:00,prt,21.96
2022-12-20T01:45:00,prt,20.58
2022-12-20T01:46:00,prt,24.12
2022-12-20T01:47:00,prt,22.90
2022-12-20T01:48:00,prt,20.84
2022-12-20T01:49:00,prt,19.83
2022-12-20T01:50:00,prt,20.97
2022-12-20T01:51:00,prt,19.19
2022-12-20T01:52:00,prt,22.20
2022-12-20T01:53:00,prt,21.69
2022-12-20T01:54:00,prt,20.61
2022-12-20T01:55:00,prt,17.77
2022-12-20T01:56:00,prt,16.13
2022-12-20T01:57:00,prt,17.80
2022-12-20T01:58:00,prt,17.37
2022-12-20T01:59:00,prt,17.13
2022-12-20T02:00:00,prt,17.90
2022-12-20T02:01:00,prt,20.08
2022-12-20T02:02:00,prt,20.43
2022-12-20T02:03:00,prt,21.57
2022-12-20T02:04:00,prt,23.03
2022-12-20T02:05:00,prt,24.41
2022-12-20T02:06:00,prt,33.32
2022-12-20T02:07:00,prt,28.54
2022-12-20T02:08:00,prt,26.75
2022-12-20T02:09:00,prt,21.45
2022-12-20T02:10:00,prt,24.74
2022-12-20T02:11:00,prt,20.65
2022-12-20T02:12:00,prt,22.11
2022-12-20T02:13:00,prt,21.43
2022-12-20T02:14:00,prt,22.61
2022-12-20T02:15:00,prt,22.01
2022-12-20T02:16:00,prt,21.95
2022-12-20T02:17:00,prt,21.18
2022-12-20T02:18:00,prt,20.27
2022-12-20T02:19:00,prt,20.16
2022-12-20T02:20:00,prt,21.53
2022-12-20T02:21:00,prt,21.26
2022-12-20T02:22:00,prt,20.72
2022-12-20T02:23:00,prt,22.61
2022-12-20T02:24:00,prt,21.79
2022-12-20T02:25:00,prt,25.05
2022-12-20T02:26:00,prt,22.52
2022-12-20T02:27:00,prt,25.03
2022-12-20T02:28:00,prt,24.12
2022-12-20T02:29:00,prt,20.67
2022-12-20T02:30:00,prt,19.72
2022-12-20T02:31:00,prt,18.21
2022-12-20T02:32:00,prt,18.19
2022-12-20T02:33:00,prt,21.14
2022-12-20T02:34:00,prt,22.20
2022-12-20T02:35:00,prt,21.86
2022-12-20T02:36:00,prt,23.45
2022-12-20T02:37:00,prt,24.02
2022-12-20T02:38:00,prt,21.07
2022-12-20T02:39:00,prt,19.52
2022-12-20T02:40:00,prt,20.20
2022-12-20T02:41:00,prt,19.98
2022-12-20T02:42:00,prt,20.93
2022-12-20T02:43:00,prt,20.40
2022-12-20T02:44:00,prt,20.41
2022-12-20T02:45:00,prt,20.48
2022-12-20T02:46:00,prt,21.25
2022-12-20T02:47:00,prt,25.44
2022-12-20T02:48:00,prt,24.96
2022-12-20T02:49:00,prt,23.07
2022-12-20T02:50:00,prt,21.86
2022-12-20T02:51:00,prt,21.28
2022-12-20T02:52:00,prt,24.04
2022-12-20T02:53:00,prt,22.87
2022-12-20T02:54:00,prt,21.98
2022-12-20T02:55:00,prt,21.99
2022-12-20T02:56:00,prt,21.90
2022-12-20T02:57:00,prt,17.93
2022-12-20T02:58:00,prt,20.33
2022-12-20T02:59:00,prt,19.15
2022-12-20T03:00:00,prt,23.92
2022-12-20T03:01:00,prt,24.69
2022-12-20T03:02:00,prt,22.74
2022-12-20T03:03:00,prt,22.61
2022-12-20T03:04:00,prt,21.37
2022-12-20T03:05:00,prt,21.62
2022-12-20T03:06:00,prt,21.10
2022-12-20T03:07:00,prt,24.52
2022-12-20T03:08:00,prt,26.41
2022-12-20T03:09:00,prt,22.70
2022-12-20T03:10:00,prt,21.06
2022-12-20T03:11:00,prt,19.95
2022-12-20T03:12:00,prt,18.76
2022-12-20T03:13:00,prt,21.85
2022-12-20T03:14:00,prt,21.77
2022-12-20T03:15:00,prt,17.65
2022-12-20T03:16:00,prt,17.67
2022-12-20T03:17:00,prt,18.75
2022-12-20T03:18:00,prt,18.76
2022-12-20T03:19:00,prt,19.73
2022-12-20T03:20:00,prt,19.05
2022-12-20T03:21:00,prt,18.69
2022-12-20T03:22:00,prt,19.88
2022-12-20T03:23:00,prt,19.41
2022-12-20T03:24:00,prt,17.85
2022-12-20T03:25:00,prt,16.18
2022-12-20T03:26:00,prt,18.83
2022-12-20T03:27:00,prt,22.63
2022-12-20T03:28:00,prt,23.06
2022-12-20T03:29:00,prt,23.32
2022-12-20T03:30:00,prt,19.15
2022-12-20T03:31:00,prt,17.42
2022-12-20T03:32:00,prt,16.92
2022-12-20T03:33:00,prt,17.44
2022-12-20T03:34:00,prt,15.74
2022-12-20T03:35:00,prt,15.73
2022-12-20T03:36:00,prt,17.17
2022-12-20T03:37:00,prt,17.47
2022-12-20T03:38:00,prt,18.85
2022-12-20T03:39:00,prt,18.57
2022-12-20T03:40:00,prt,18.81
2022-12-20T03:41:00,prt,23.61
2022-12-20T03:42:00,prt,23.01
2022-12-20T03:43:00,prt,21.27
2022-12-20T03:44:00,prt,18.33
2022-12-20T03:45:00,prt,17.38
2022-12-20T03:46:00,prt,19.29
2022-12-20T03:47:00,prt,22.57
2022-12-20T03:48:00,prt,21.71
2022-12-20T03:49:00,prt,20.60
2022-12-20T03:50:00,prt,17.94
2022-12-20T03:51:00,prt,18.12
2022-12-20T03:52:00,prt,18.79
2022-12-20T03:53:00,prt,21.86
2022-12-20T03:54:00,prt,22.18
2022-12-20T03:55:00,prt,20.40
2022-12-20T03:56:00,prt,20.00
2022-12-20T03:57:00,prt,19.37
2022-12-20T03:58:00,prt,17.18
2022-12-20T03:59:00,prt,18.02
2022-12-20T04:00:00,prt,17.03
2022-12-20T04:01:00,prt,16.85
2022-12-20T04:02:00,prt,16.71
2022-12-20T04:03:00,prt,16.25
2022-12-20T04:04:00,prt,18.42
2022-12-20T04:05:00,prt,18.15
2022-12-20T04:06:00,prt,18.67
2022-12-20T04:07:00,prt,21.57
2022-12-20T04:08:00,prt,21.42
2022-12-20T04:09:00,prt,20.49
2022-12-20T04:10:00,prt,17.09
2022-12-20T04:11:00,prt,20.70
2022-12-20T04:12:00,prt,16.56
2022-12-20T04:13:00,prt,16.73
2022-12-20T04:14:00,prt,16.62
2022-12-20T04:15:00,prt,16.54
2022-12-20T04:16:00,prt,16.98
2022-12-20T04:17:00,prt,17.17
2022-12-20T04:18:00,prt,17.70
2022-12-20T04:19:00,prt,20.38
2022-12-20T04:20:00,prt,22.11
2022-12-20T04:21:00,prt,21.34
2022-12-20T04:22:00,prt,21.75
2022-12-20T04:23:00,prt,22.93
2022-12-20T04:24:00,prt,21.23
2022-12-20T04:25:00,prt,22.09
2022-12-20T04:26:00,prt,22.92
2022-12-20T04:27:00,prt,26.66
2022-12-20T04:28:00,prt,25.30
2022-12-20T04:29:00,prt,23.88
2022-12-20T04:30:00,prt,20.86
2022-12-20T04:31:00,prt,19.69
2022-12-20T04:32:00,prt,18.72
2022-12-20T04:33:00,prt,17.70
2022-12-20T04:34:00,prt,18.43
2022-12-20T04:35:00,prt,17.39
2022-12-20T04:36:00,prt,18.78
2022-12-20T04:37:00,prt,18.75
2022-12-20T04:38:00,prt,21.93
2022-12-20T04:39:00,prt,21.71
2022-12-20T04:40:00,prt,19.48
2022-12-20T04:41:00,prt,20.44
2022-12-20T04:42:00,prt,20.75
2022-12-20T04:43:00,prt,19.81
2022-12-20T04:44:00,prt,21.60
2022-12-20T04:45:00,prt,21.14
2022-12-20T04:46:00,prt,22.75
2022-12-20T04:47:00,prt,25.85
2022-12-20T04:48:00,prt,25.92
2022-12-20T04:49:00,prt,25.48
2022-12-20T04:50:00,prt,21.65
2022-12-20T04:51:00,prt,18.19
2022-12-20T04:52:00,prt,18.45
2022-12-20T04:53:00,prt,19.51
2022-12-20T04:54:00,prt,20.65
2022-12-20T04:55:00,prt,19.48
2022-12-20T04:56:00,prt,25.16
2022-12-20T04:57:00,prt,24.93
2022-12-20T04:58:00,prt,20.44
2022-12-20T04:59:00,prt,20.48
2022-12-20T05:00:00,prt,20.72
2022-12-20T05:01:00,prt,18.24
2022-12-20T05:02:00,prt,17.65
2022-12-20T05:03:00,prt,18.07
2022-12-20T05:04:00,prt,26.17
2022-12-20T05:05:00,prt,23.28
2022-12-20T05:06:00,prt,19.16
2022-12-20T05:07:00,prt,22.22
2022-12-20T05:08:00,prt,22.57
2022-12-20T05:09:00,prt,21.01
2022-12-20T05:10:00,prt,17.85
2022-12-20T05:11:00,prt,18.12
2022-12-20T05:12:00,prt,19.76
2022-12-20T05:13:00,prt,23.51
2022-12-20T05:14:00,prt,23.69
2022-12-20T05:15:00,prt,23.80
2022-12-20T05:16:00,prt,26.47
2022-12-20T05:17:00,prt,24.92
2022-12-20T05:18:00,prt,23.10
2022-12-20T05:19:00,prt,22.27
2022-12-20T05:20:00,prt,21.60
2022-12-20T05:21:00,prt,20.34
2022-12-20T05:22:00,prt,20.57
2022-12-20T05:23:00,prt,20.14
2022-12-20T05:24:00,prt,20.48
2022-12-20T05:25:00,prt,19.16
2022-12-20T05:26:00,prt,19.80
2022-12-20T05:27:00,prt,23.35
2022-12-20T05:28:00,prt,22.64
2022-12-20T05:29:00,prt,20.58
2022-12-20T05:30:00,prt,18.98
2022-12-20T05:31:00,prt,18.70
2022-12-20T05:32:00,prt,17.57
2022-12-20T05:33:00,prt,17.83
2022-12-20T05:34:00,prt,18.81
2022-12-20T05:35:00,prt,18.95
2022-12-20T05:36:00,prt,22.02
2022-12-20T05:37:00,prt,20.18
2022-12-20T05:38:00,prt,20.61
2022-12-20T05:39:00,prt,20.46
2022-12-20T05:40:00,prt,23.95
2022-12-20T05:41:00,prt,22.96
2022-12-20T05:42:00,prt,23.14
2022-12-20T05:43:00,prt,22.11
2022-12-20T05:44:00,prt,21.22
2022-12-20T05:45:00,prt,18.42
2022-12-20T05:46:00,prt,18.35
2022-12-20T05:47:00,prt,22.66
2022-12-20T05:48:00,prt,21.34
2022-12-20T05:49:00,prt,20.50
2022-12-20T05:50:00,prt,18.88
2022-12-20T05:51:00,prt,18.51
2022-12-20T05:52:00,prt,18.34
2022-12-20T05:53:00,prt,19.38
2022-12-20T05:54:00,prt,20.71
2022-12-20T05:55:00,prt,17.90
2022-12-20T05:56:00,prt,17.28
2022-12-20T05:57:00,prt,18.46
2022-12-20T05:58:00,prt,22.20
2022-12-20T05:59:00,prt,21.71
2022-12-20T06:00:00,prt,16.78
2022-12-20T06:01:00,prt,16.43
2022-12-20T06:02:00,prt,17.73
2022-12-20T06:03:00,prt,15.92
2022-12-20T06:04:00,prt,17.02
2022-12-20T06:05:00,prt,17.50
2022-12-20T06:06:00,prt,18.36
2022-12-20T06:07:00,prt,21.89
2022-12-20T06:08:00,prt,21.77
2022-12-20T06:09:00,prt,21.93
2022-12-20T06:10:00,prt,18.97
2022-12-20T06:11:00,prt,19.03
2022-12-20T06:12:00,prt,16.90
2022-12-20T06:13:00,prt,16.51
2022-12-20T06:14:00,prt,18.14
2022-12-20T06:15:00,prt,18.09
2022-12-20T06:16:00,prt,18.18
2022-12-20T06:17:00,prt,21.40
2022-12-20T06:18:00,prt,21.54
2022-12-20T06:19:00,prt,20.70
2022-12-20T06:20:00,prt,20.08
2022-12-20T06:21:00,prt,18.74
2022-12-20T06:22:00,prt,19.12
2022-12-20T06:23:00,prt,17.49
2022-12-20T06:24:00,prt,17.85
2022-12-20T06:25:00,prt,19.16
2022-12-20T06:26:00,prt,19.50
2022-12-20T06:27:00,prt,22.55
2022-12-20T06:28:00,prt,23.40
2022-12-20T06:29:00,prt,21.32
2022-12-20T06:30:00,prt,19.17
2022-12-20T06:31:00,prt,18.71
2022-12-20T06:32:00,prt,18.66
2022-12-20T06:33:00,prt,22.95
2022-12-20T06:34:00,prt,22.82
2022-12-20T06:35:00,prt,23.83
2022-12-20T06:36:00,prt,25.11
2022-12-20T06:37:00,prt,24.30
2022-12-20T06:38:00,prt,24.12
2022-12-20T06:39:00,prt,22.04
2022-12-20T06:40:00,prt,22.00
2022-12-20T06:41:00,prt,22.67
2022-12-20T06:42:00,prt,20.89
2022-12-20T06:43:00,prt,18.96
2022-12-20T06:44:00,prt,19.45
2022-12-20T06:45:00,prt,18.80
2022-12-20T06:46:00,prt,20.93
2022-12-20T06:47:00,prt,25.94
2022-12-20T06:48:00,prt,25.78
2022-12-20T06:49:00,prt,26.40
2022-12-20T06:50:00,prt,24.03
2022-12-20T06:51:00,prt,23.12
2022-12-20T06:52:00,prt,23.74
2022-12-20T06:53:00,prt,24.45
2022-12-20T06:54:00,prt,25.71
2022-12-20T06:55:00,prt,23.36
2022-12-20T06:56:00,prt,23.38
2022-12-20T06:57:00,prt,23.83
2022-12-20T06:58:00,prt,28.48
2022-12-20T06:59:00,prt,26.27
2022-12-20T07:00:00,prt,26.16
2022-12-20T07:01:00,prt,24.64
2022-12-20T07:02:00,prt,24.98
2022-12-20T07:03:00,prt,25.09
2022-12-20T07:04:00,prt,23.06
2022-12-20T07:05:00,prt,19.94
2022-12-20T07:06:00,prt,19.45
2022-12-20T07:07:00,prt,23.83
2022-12-20T07:08:00,prt,25.28
2022-12-20T07:09:00,prt,22.80
2022-12-20T07:10:00,prt,18.08
2022-12-20T07:11:00,prt,20.05
2022-12-20T07:12:00,prt,18.09
2022-12-20T07:13:00,prt,18.62
2022-12-20T07:14:00,prt,18.74
2022-12-20T07:15:00,prt,19.09
2022-12-20T07:16:00,prt,17.78
2022-12-20T07:17:00,prt,17.51
2022-12-20T07:18:00,prt,15.50
2022-12-20T07:19:00,prt,15.04
2022-12-20T07:20:00,prt,15.06
2022-12-20T07:21:00,prt,15.43
2022-12-20T07:22:00,prt,16.41
2022-12-20T07:23:00,prt,19.32
2022-12-20T07:24:00,prt,20.15
2022-12-20T07:25:00,prt,17.19
2022-12-20T07:26:00,prt,16.85
2022-12-20T07:27:00,prt,22.84
2022-12-20T07:28:00,prt,22.61
2022-12-20T07:29:00,prt,22.00
2022-12-20T07:30:00,prt,19.65
2022-12-20T07:31:00,prt,22.19
2022-12-20T07:32:00,prt,21.84
2022-12-20T07:33:00,prt,24.02
2022-12-20T07:34:00,prt,25.96
2022-12-20T07:35:00,prt,27.19
2022-12-20T07:36:00,prt,26.74
2022-12-20T07:37:00,prt,24.57
2022-12-20T07:38:00,prt,24.48
2022-12-20T07:39:00,prt,24.01
2022-12-20T07:40:00,prt,23.84
2022-12-20T07:41:00,prt,24.26
2022-12-20T07:42:00,prt,22.09
2022-12-20T07:43:00,prt,22.17
2022-12-20T07:44:00,prt,23.14
2022-12-20T07:45:00,prt,22.56
2022-12-20T07:46:00,prt,23.09
2022-12-20T07:47:00,prt,26.50
2022-12-20T07:48:00,prt,26.77
2022-12-20T07:49:00,prt,22.60
2022-12-20T07:50:00,prt,22.08
2022-12-20T07:51:00,prt,21.69
2022-12-20T07:52:00,prt,23.24
2022-12-20T07:53:00,prt,24.15
2022-12-20T07:54:00,prt,27.05
2022-12-20T07:55:00,prt,26.59
2022-12-20T07:56:00,prt,25.78
2022-12-20T07:57:00,prt,26.20
2022-12-20T07:58:00,prt,25.54
2022-12-20T07:59:00,prt,26.68
2022-12-20T08:00:00,prt,29.86
2022-12-20T08:01:00,prt,22.11
2022-12-20T08:02:00,prt,21.48
2022-12-20T08:03:00,prt,25.27
2022-12-20T08:04:00,prt,22.16
2022-12-20T08:05:00,prt,23.69
2022-12-20T08:06:00,prt,26.11
2022-12-20T08:07:00,prt,26.37
2022-12-20T08:08:00,prt,26.07
2022-12-20T08:09:00,prt,22.24
2022-12-20T08:10:00,prt,23.13
2022-12-20T08:11:00,prt,23.07
2022-12-20T08:12:00,prt,24.60
2022-12-20T08:13:00,prt,26.12
2022-12-20T08:14:00,prt,25.19
2022-12-20T08:15:00,prt,25.12
2022-12-20T08:16:00,prt,25.11
2022-12-20T08:17:00,prt,25.64
2022-12-20T08:18:00,prt,24.83
2022-12-20T08:19:00,prt,24.47
2022-12-20T08:20:00,prt,23.20
2022-12-20T08:21:00,prt,29.97
2022-12-20T08:22:00,prt,28.33
2022-12-20T08:23:00,prt,28.66
2022-12-20T08:24:00,prt,29.73
2022-12-20T08:25:00,prt,29.00
2022-12-20T08:26:00,prt,32.56
2022-12-20T08:27:00,prt,33.61
2022-12-20T08:28:00,prt,34.72
2022-12-20T08:29:00,prt,28.59
2022-12-20T08:30:00,prt,29.39
2022-12-20T08:31:00,prt,28.83
2022-12-20T08:32:00,prt,28.02
2022-12-20T08:33:00,prt,28.05
2022-12-20T08:34:00,prt,28.36
2022-12-20T08:35:00,prt,29.84
2022-12-20T08:36:00,prt,29.80
2022-12-20T08:37:00,prt,28.73
2022-12-20T08:38:00,prt,29.67
2022-12-20T08:39:00,prt,28.32
2022-12-20T08:40:00,prt,30.38
2022-12-20T08:41:00,prt,28.08
2022-12-20T08:42:00,prt,27.65
2022-12-20T08:43:00,prt,27.77
2022-12-20T08:44:00,prt,29.30
2022-12-20T08:45:00,prt,29.29
2022-12-20T08:46:00,prt,33.52
2022-12-20T08:47:00,prt,33.81
2022-12-20T08:48:00,prt,31.50
2022-12-20T08:49:00,prt,32.20
2022-12-20T08:50:00,prt,31.70
2022-12-20T08:51:00,prt,28.88
2022-12-20T08:52:00,prt,29.06
2022-12-20T08:53:00,prt,27.28
2022-12-20T08:54:00,prt,28.30
2022-12-20T08:55:00,prt,28.56
2022-12-20T08:56:00,prt,28.17
2022-12-20T08:57:00,prt,29.23
2022-12-20T08:58:00,prt,28.67
2022-12-20T08:59:00,prt,28.08
2022-12-20T09:00:00,prt,28.50
2022-12-20T09:01:00,prt,30.25
2022-12-20T09:02:00,prt,30.10
2022-12-20T09:03:00,prt,29.23
2022-12-20T09:04:00,prt,30.25
2022-12-20T09:05:00,prt,30.23
2022-12-20T09:06:00,prt,34.88
2022-12-20T09:07:00,prt,35.66
2022-12-20T09:08:00,prt,32.26
2022-12-20T09:09:00,prt,32.69
2022-12-20T09:10:00,prt,32.67
2022-12-20T09:11:00,prt,29.58
2022-12-20T09:12:00,prt,29.85
2022-12-20T09:13:00,prt,29.12
2022-12-20T09:14:00,prt,28.25
2022-12-20T09:15:00,prt,28.67
2022-12-20T09:16:00,prt,27.36
2022-12-20T09:17:00,prt,26.43
2022-12-20T09:18:00,prt,25.14
2022-12-20T09:19:00,prt,26.83
2022-12-20T09:20:00,prt,26.89
2022-12-20T09:21:00,prt,29.22
2022-12-20T09:22:00,prt,28.30
2022-12-20T09:23:00,prt,27.95
2022-12-20T09:24:00,prt,30.15
2022-12-20T09:25:00,prt,31.56
2022-12-20T09:26:00,prt,35.18
2022-12-20T09:27:00,prt,34.99
2022-12-20T09:28:00,prt,29.50
2022-12-20T09:29:00,prt,26.21
2022-12-20T09:30:00,prt,30.52
2022-12-20T09:31:00,prt,29.33
2022-12-20T09:32:00,prt,28.48
2022-12-20T09:33:00,prt,27.49
2022-12-20T09:34:00,prt,26.10
2022-12-20T09:35:00,prt,25.26
2022-12-20T09:36:00,prt,26.14
2022-12-20T09:37:00,prt,26.38
2022-12-20T09:38:00,prt,27.52
2022-12-20T09:39:00,prt,27.05
2022-12-20T09:40:00,prt,25.26
2022-12-20T09:41:00,prt,26.02
2022-12-20T09:42:00,prt,25.41
2022-12-20T09:43:00,prt,27.64
2022-12-20T09:44:00,prt,27.26
2022-12-20T09:45:00,prt,30.35
2022-12-20T09:46:00,prt,32.09
2022-12-20T09:47:00,prt,31.21
2022-12-20T09:48:00,prt,28.05
2022-12-20T09:49:00,prt,29.29
2022-12-20T09:50:00,prt,27.58
2022-12-20T09:51:00,prt,26.77
2022-12-20T09:52:00,prt,23.87
2022-12-20T09:53:00,prt,25.52
2022-12-20T09:54:00,prt,26.01
2022-12-20T09:55:00,prt,24.24
2022-12-20T09:56:00,prt,24.38
2022-12-20T09:57:00,prt,27.66
2022-12-20T09:58:00,prt,27.82
2022-12-20T09:59:00,prt,26.34
2022-12-20T10:00:00,prt,26.25
2022-12-20T10:01:00,prt,26.99
2022-12-20T10:02:00,prt,29.49
2022-12-20T10:03:00,prt,28.71
2022-12-20T10:04:00,prt,29.64
2022-12-20T10:05:00,prt,31.38
2022-12-20T10:06:00,prt,30.51
2022-12-20T10:07:00,prt,30.09
2022-12-20T10:08:00,prt,26.88
2022-12-20T10:09:00,prt,26.28
2022-12-20T10:10:00,prt,27.26
2022-12-20T10:11:00,prt,28.48
2022-12-20T10:12:00,prt,30.89
2022-12-20T10:13:00,prt,28.68
2022-12-20T10:14:00,prt,28.11
2022-12-20T10:15:00,prt,27.61
2022-12-20T10:16:00,prt,27.40
2022-12-20T10:17:00,prt,27.61
2022-12-20T10:18:00,prt,26.93
2022-12-20T10:19:00,prt,28.23
2022-12-20T10:20:00,prt,28.36
2022-12-20T10:21:00,prt,26.63
2022-12-20T10:22:00,prt,27.29
2022-12-20T10:23:00,prt,27.45
2022-12-20T10:24:00,prt,29.07
2022-12-20T10:25:00,prt,30.51
2022-12-20T10:26:00,prt,34.23
2022-12-20T10:27:00,prt,30.58
2022-12-20T10:28:00,prt,31.57
2022-12-20T10:29:00,prt,28.82
2022-12-20T10:30:00,prt,27.73
2022-12-20T10:31:00,prt,28.42
2022-12-20T10:32:00,prt,27.04
2022-12-20T10:33:00,prt,26.69
2022-12-20T10:34:00,prt,27.73
2022-12-20T10:35:00,prt,30.33
2022-12-20T10:36:00,prt,30.58
2022-12-20T10:37:00,prt,30.35
2022-12-20T10:38:00,prt,30.35
2022-12-20T10:39:00,prt,31.62
2022-12-20T10:40:00,prt,28.64
2022-12-20T10:41:00,prt,28.64
2022-12-20T10:42:00,prt,28.18
2022-12-20T10:43:00,prt,27.19
2022-12-20T10:44:00,prt,32.13
2022-12-20T10:45:00,prt,32.14
2022-12-20T10:46:00,prt,31.36
2022-12-20T10:47:00,prt,29.47
2022-12-20T10:48:00,prt,32.74
2022-12-20T10:49:00,prt,30.92
2022-12-20T10:50:00,prt,30.86
2022-12-20T10:51:00,prt,32.11
2022-12-20T10:52:00,prt,30.90
2022-12-20T10:53:00,prt,26.84
2022-12-20T10:54:00,prt,30.16
2022-12-20T10:55:00,prt,29.11
2022-12-20T10:56:00,prt,25.22
2022-12-20T10:57:00,prt,25.32
2022-12-20T10:58:00,prt,27.95
2022-12-20T10:59:00,prt,29.81
2022-12-20T11:00:00,prt,32.99
2022-12-20T11:01:00,prt,32.28
2022-12-20T11:02:00,prt,31.18
2022-12-20T11:03:00,prt,29.70
2022-12-20T11:04:00,prt,34.56
2022-12-20T11:05:00,prt,31.27
2022-12-20T11:06:00,prt,26.35
2022-12-20T11:07:00,prt,25.18
2022-12-20T11:08:00,prt,25.16
2022-12-20T11:09:00,prt,25.93
2022-12-20T11:10:00,prt,26.49
2022-12-20T11:11:00,prt,27.05
2022-12-20T11:12:00,prt,26.48
2022-12-20T11:13:00,prt,25.15
2022-12-20T11:14:00,prt,25.64
2022-12-20T11:15:00,prt,26.48
2022-12-20T11:16:00,prt,25.94
2022-12-20T11:17:00,prt,25.75
2022-12-20T11:18:00,prt,27.68
2022-12-20T11:19:00,prt,26.05
2022-12-20T11:20:00,prt,27.18
2022-12-20T11:21:00,prt,26.59
2022-12-20T11:22:00,prt,31.55
2022-12-20T11:23:00,prt,30.41
2022-12-20T11:24:00,prt,30.05
2022-12-20T11:25:00,prt,30.14
2022-12-20T11:26:00,prt,29.88
2022-12-20T11:27:00,prt,29.91
2022-12-20T11:28:00,prt,30.90
2022-12-20T11:29:00,prt,28.49
2022-12-20T11:30:00,prt,28.50
2022-12-20T11:31:00,prt,25.75
2022-12-20T11:32:00,prt,27.14
2022-12-20T11:33:00,prt,29.30
2022-12-20T11:34:00,prt,28.53
2022-12-20T11:35:00,prt,27.38
2022-12-20T11:36:00,prt,28.71
2022-12-20T11:37:00,prt,30.46
2022-12-20T11:38:00,prt,29.94
2022-12-20T11:39:00,prt,30.13
2022-12-20T11:40:00,prt,26.47
2022-12-20T11:41:00,prt,26.26
2022-12-20T11:42:00,prt,25.80
2022-12-20T11:43:00,prt,30.36
2022-12-20T11:44:00,prt,29.53
2022-12-20T11:45:00,prt,25.48
2022-12-20T11:46:00,prt,25.74
2022-12-20T11:47:00,prt,26.40
2022-12-20T11:48:00,prt,26.51
2022-12-20T11:49:00,prt,25.66
2022-12-20T11:50:00,prt,27.32
2022-12-20T11:51:00,prt,28.05
2022-12-20T11:52:00,prt,26.83
2022-12-20T11:53:00,prt,28.04
2022-12-20T11:54:00,prt,27.99
2022-12-20T11:55:00,prt,28.69
2022-12-20T11:56:00,prt,29.86
2022-12-20T11:57:00,prt,27.69
2022-12-20T11:58:00,prt,27.95
2022-12-20T11:59:00,prt,25.98
2022-12-20T12:00:00,prt,26.48
2022-12-20T12:01:00,prt,26.69
2022-12-20T12:02:00,prt,30.10
2022-12-20T12:03:00,prt,32.40
2022-12-20T12:04:00,prt,30.90
2022-12-20T12:05:00,prt,29.59
2022-12-20T12:06:00,prt,29.53
2022-12-20T12:07:00,prt,27.16
2022-12-20T12:08:00,prt,28.10
2022-12-20T12:09:00,prt,28.51
2022-12-20T12:10:00,prt,31.71
2022-12-20T12:11:00,prt,28.27
2022-12-20T12:12:00,prt,27.97
2022-12-20T12:13:00,prt,27.34
2022-12-20T12:14:00,prt,28.41
2022-12-20T12:15:00,prt,28.31
2022-12-20T12:16:00,prt,30.54
2022-12-20T12:17:00,prt,28.84
2022-12-20T12:18:00,prt,30.47
2022-12-20T12:19:00,prt,31.52
2022-12-20T12:20:00,prt,33.78
2022-12-20T12:21:00,prt,40.93
2022-12-20T12:22:00,prt,40.46
2022-12-20T12:23:00,prt,37.23
2022-12-20T12:24:00,prt,32.16
2022-12-20T12:25:00,prt,30.47
2022-12-20T12:26:00,prt,31.04
2022-12-20T12:27:00,prt,30.93
2022-12-20T12:28:00,prt,28.46
2022-12-20T12:29:00,prt,27.80
2022-12-20T12:30:00,prt,27.73
2022-12-20T12:31:00,prt,27.79
2022-12-20T12:32:00,prt,27.69
2022-12-20T12:33:00,prt,26.46
2022-12-20T12:34:00,prt,26.64
2022-12-20T12:35:00,prt,33.69
2022-12-20T12:36:00,prt,28.69
2022-12-20T12:37:00,prt,28.78
2022-12-20T12:38:00,prt,26.15
2022-12-20T12:39:00,prt,26.59
2022-12-20T12:40:00,prt,26.53
2022-12-20T12:41:00,prt,29.77
2022-12-20T12:42:00,prt,31.31
2022-12-20T12:43:00,prt,29.38
2022-12-20T12:44:00,prt,27.45
2022-12-20T12:45:00,prt,28.20
2022-12-20T12:46:00,prt,31.68
2022-12-20T12:47:00,prt,31.40
2022-12-20T12:48:00,prt,31.22
2022-12-20T12:49:00,prt,32.38
2022-12-20T12:50:00,prt,31.63
2022-12-20T12:51:00,prt,26.74
2022-12-20T12:52:00,prt,26.60
2022-12-20T12:53:00,prt,26.12
2022-12-20T12:54:00,prt,25.41
2022-12-20T12:55:00,prt,26.79
2022-12-20T12:56:00,prt,27.13
2022-12-20T12:57:00,prt,28.06
2022-12-20T12:58:00,prt,28.44
2022-12-20T12:59:00,prt,28.17
2022-12-20T13:00:00,prt,30.62
2022-12-20T13:01:00,prt,29.31
2022-12-20T13:02:00,prt,28.72
2022-12-20T13:03:00,prt,27.41
2022-12-20T13:04:00,prt,26.61
2022-12-20T13:05:00,prt,26.71
2022-12-20T13:06:00,prt,26.08
2022-12-20T13:07:00,prt,27.72
2022-12-20T13:08:00,prt,30.42
2022-12-20T13:09:00,prt,31.82
2022-12-20T13:10:00,prt,31.16
2022-12-20T13:11:00,prt,29.98
2022-12-20T13:12:00,prt,31.07
2022-12-20T13:13:00,prt,32.14
2022-12-20T13:14:00,prt,34.44
2022-12-20T13:15:00,prt,34.25
2022-12-20T13:16:00,prt,31.48
2022-12-20T13:17:00,prt,26.71
2022-12-20T13:18:00,prt,26.93